| time (UTC) | temp F | wind direction | speed MPH | gust MPH | rain 1hr in | rain 24hr in | rain mn in | humidity % | barometer mb |
| 20260508103032 | 55 | 271 | 5.0 | 11.0 | 0.00 | 0.00 | 0.00 | 59 | 1018.8 |
| 20260508100032 | 51 | 165 | 1.0 | 3.0 | 0.00 | 0.00 | 0.00 | 61 | 1018.7 |
| 20260508093034 | 53 | 311 | 2.0 | 7.0 | 0.00 | 0.00 | 0.00 | 58 | 1018.6 |
| 20260508091530 | 55 | 309 | 3.0 | 8.0 | 0.00 | 0.00 | 0.00 | 54 | 1018.5 |
| 20260508090032 | 57 | 297 | 2.0 | 6.0 | 0.00 | 0.00 | 0.00 | 50 | 1018.5 |
| 20260508084534 | 58 | 280 | 3.0 | 10.0 | 0.00 | 0.00 | 0.00 | 47 | 1018.5 |
| 20260508083030 | 58 | 278 | 4.0 | 10.0 | 0.00 | 0.00 | 0.00 | 47 | 1018.4 |
| 20260508081531 | 58 | 281 | 4.0 | 8.0 | 0.00 | 0.00 | 0.00 | 46 | 1018.4 |
| 20260508080141 | 58 | 282 | 4.0 | 10.0 | 0.00 | 0.00 | 0.00 | 44 | 1018.4 |
| 20260508074536 | 59 | 273 | 5.0 | 8.0 | 0.00 | 0.00 | 0.00 | 43 | 1018.5 |
| 20260508071536 | 60 | 276 | 6.0 | 11.0 | 0.00 | 0.00 | 0.00 | 42 | 1018.3 |
| 20260508070035 | 60 | 279 | 6.0 | 11.0 | 0.00 | 0.00 | 0.00 | 42 | 1018.4 |
| 20260508064609 | 60 | 272 | 6.0 | 13.0 | 0.00 | 0.00 | 0.00 | 42 | 1018.4 |
| 20260508063031 | 60 | 271 | 7.0 | 14.0 | 0.00 | 0.00 | 0.00 | 42 | 1018.4 |
| 20260508061536 | 61 | 269 | 7.0 | 10.0 | 0.00 | 0.00 | 0.00 | 42 | 1018.3 |
| 20260508060032 | 61 | 272 | 7.0 | 13.0 | 0.00 | 0.00 | 0.00 | 42 | 1018.3 |
| 20260508053032 | 62 | 274 | 6.0 | 15.0 | 0.00 | 0.00 | 0.00 | 41 | 1018.4 |
| 20260508044533 | 62 | 289 | 7.0 | 13.0 | 0.00 | 0.00 | 0.00 | 43 | 1018.2 |
| 20260508043033 | 62 | 290 | 7.0 | 14.0 | 0.00 | 0.00 | 0.00 | 42 | 1018.2 |
| 20260508041644 | 63 | 278 | 7.0 | 16.0 | 0.00 | 0.00 | 0.00 | 41 | 1018.2 |
| 20260508040031 | 63 | 273 | 7.0 | 15.0 | 0.00 | 0.00 | 0.00 | 41 | 1018.1 |
| 20260508034538 | 63 | 277 | 5.0 | 10.0 | 0.00 | 0.00 | 0.00 | 39 | 1018.0 |
| 20260508033035 | 63 | 283 | 5.0 | 15.0 | 0.00 | 0.00 | 0.00 | 37 | 1017.8 |
| 20260508031535 | 64 | 288 | 5.0 | 13.0 | 0.00 | 0.00 | 0.00 | 35 | 1017.6 |
| 20260508023036 | 66 | 285 | 7.0 | 14.0 | 0.00 | 0.00 | 0.00 | 29 | 1017.4 |
| 20260508021534 | 67 | 281 | 7.0 | 15.0 | 0.00 | 0.00 | 0.00 | 27 | 1017.3 |
| 20260508020034 | 68 | 282 | 8.0 | 16.0 | 0.00 | 0.00 | 0.00 | 26 | 1017.3 |
| 20260508014535 | 69 | 285 | 10.0 | 19.0 | 0.00 | 0.00 | 0.00 | 26 | 1017.2 |
| 20260508013033 | 70 | 282 | 8.0 | 16.0 | 0.00 | 0.00 | 0.00 | 25 | 1017.3 |
| 20260508011534 | 70 | 279 | 9.0 | 17.0 | 0.00 | 0.00 | 0.00 | 24 | 1017.4 |
| 20260508010036 | 70 | 278 | 9.0 | 20.0 | 0.00 | 0.00 | 0.00 | 24 | 1017.5 |
| 20260508004533 | 70 | 285 | 9.0 | 18.0 | 0.00 | 0.00 | 0.00 | 23 | 1017.4 |
| 20260508001534 | 71 | 288 | 9.0 | 19.0 | 0.00 | 0.00 | 0.00 | 23 | 1017.4 |
| 20260508000039 | 71 | 283 | 8.0 | 15.0 | 0.00 | 0.00 | 0.00 | 22 | 1017.3 |
| 20260507234536 | 70 | 277 | 10.0 | 22.0 | 0.00 | 0.00 | 0.00 | 21 | 1017.3 |
| 20260507224530 | 70 | 283 | 12.0 | 22.0 | 0.00 | 0.00 | 0.00 | 27 | 1017.6 |
| 20260507223034 | 70 | 275 | 14.0 | 25.0 | 0.00 | 0.00 | 0.00 | 28 | 1017.6 |
| 20260507221536 | 70 | 278 | 12.0 | 23.0 | 0.00 | 0.00 | 0.00 | 30 | 1018.0 |
| 20260507220037 | 70 | 291 | 10.0 | 22.0 | 0.00 | 0.00 | 0.00 | 32 | 1018.1 |
| 20260507213143 | 68 | 283 | 11.0 | 20.0 | 0.00 | 0.00 | 0.00 | 38 | 1018.5 |
| 20260507210035 | 68 | 284 | 11.0 | 21.0 | 0.00 | 0.00 | 0.00 | 40 | 1018.6 |
| 20260507204533 | 67 | 282 | 12.0 | 22.0 | 0.00 | 0.00 | 0.00 | 41 | 1018.7 |
| 20260507203035 | 67 | 290 | 11.0 | 23.0 | 0.00 | 0.00 | 0.00 | 42 | 1018.7 |
| 20260507201535 | 66 | 283 | 12.0 | 26.0 | 0.00 | 0.00 | 0.00 | 42 | 1018.9 |
| 20260507194534 | 65 | 273 | 12.0 | 24.0 | 0.00 | 0.00 | 0.00 | 44 | 1019.4 |
| 20260507193037 | 64 | 279 | 14.0 | 27.0 | 0.00 | 0.00 | 0.00 | 48 | 1019.5 |
| 20260507191529 | 64 | 273 | 12.0 | 23.0 | 0.00 | 0.00 | 0.00 | 50 | 1019.6 |
| 20260507184535 | 62 | 261 | 7.0 | 15.0 | 0.00 | 0.00 | 0.00 | 55 | 1020.7 |
| 20260507181608 | 61 | 255 | 9.0 | 18.0 | 0.00 | 0.00 | 0.00 | 56 | 1020.7 |
| 20260507180045 | 60 | 249 | 8.0 | 19.0 | 0.00 | 0.00 | 0.00 | 58 | 1020.7 |
| 20260507180035 | 59 | 256 | 12.0 | 22.0 | 0.00 | 0.00 | 0.00 | 60 | 1020.7 |
| 20260507173034 | 58 | 267 | 14.0 | 24.0 | 0.00 | 0.00 | 0.00 | 61 | 1020.6 |
| 20260507171652 | 58 | 258 | 11.0 | 22.0 | 0.00 | 0.00 | 0.00 | 63 | 1020.9 |
| 20260507170033 | 58 | 280 | 11.0 | 21.0 | 0.00 | 0.00 | 0.00 | 64 | 1020.9 |
| 20260507164606 | 57 | 285 | 11.0 | 21.0 | 0.00 | 0.00 | 0.00 | 67 | 1021.0 |
| 20260507163031 | 56 | 281 | 11.0 | 23.0 | 0.00 | 0.00 | 0.00 | 68 | 1021.1 |
| 20260507161539 | 56 | 277 | 10.0 | 21.0 | 0.00 | 0.00 | 0.00 | 69 | 1021.2 |
| 20260507160111 | 55 | 272 | 11.0 | 23.0 | 0.00 | 0.00 | 0.00 | 70 | 1021.4 |
| 20260507154532 | 55 | 287 | 9.0 | 19.0 | 0.00 | 0.00 | 0.00 | 73 | 1021.5 |
| 20260507151535 | 54 | 287 | 8.0 | 16.0 | 0.00 | 0.00 | 0.00 | 74 | 1021.6 |
| 20260507150045 | 54 | 292 | 8.0 | 17.0 | 0.00 | 0.00 | 0.00 | 76 | 1021.7 |
| 20260507144534 | 53 | 298 | 7.0 | 16.0 | 0.00 | 0.00 | 0.00 | 78 | 1021.7 |
| 20260507143109 | 52 | 298 | 8.0 | 16.0 | 0.00 | 0.00 | 0.00 | 80 | 1021.7 |
| 20260507141535 | 52 | 298 | 7.0 | 16.0 | 0.00 | 0.00 | 0.00 | 80 | 1021.6 |
| 20260507140036 | 52 | 299 | 8.0 | 17.0 | 0.00 | 0.00 | 0.00 | 80 | 1021.3 |
| 20260507134535 | 52 | 285 | 8.0 | 20.0 | 0.00 | 0.00 | 0.00 | 80 | 1021.0 |
| 20260507133031 | 52 | 292 | 8.0 | 17.0 | 0.00 | 0.00 | 0.00 | 81 | 1020.9 |
| 20260507131536 | 52 | 286 | 9.0 | 18.0 | 0.00 | 0.00 | 0.00 | 80 | 1020.9 |
| 20260507124530 | 53 | 285 | 9.0 | 16.0 | 0.00 | 0.00 | 0.00 | 80 | 1020.8 |
| 20260507121536 | 53 | 280 | 8.0 | 20.0 | 0.00 | 0.00 | 0.00 | 79 | 1021.0 |
| 20260507120036 | 53 | 279 | 9.0 | 18.0 | 0.00 | 0.00 | 0.00 | 78 | 1021.0 |
| 20260507114534 | 54 | 272 | 8.0 | 17.0 | 0.00 | 0.00 | 0.00 | 78 | 1021.0 |
| 20260507113033 | 54 | 267 | 8.0 | 17.0 | 0.00 | 0.00 | 0.00 | 79 | 1020.9 |
| 20260507111536 | 54 | 274 | 7.0 | 14.0 | 0.00 | 0.00 | 0.00 | 78 | 1020.9 |